048  
ASUS44 KMOB 250713  
RWRMOB  
REGIONAL WEATHER ROUNDUP  
NATIONAL WEATHER SERVICE MOBILE AL  
200 AM CDT MON OCT 25 2021  
 
NOTE: "FAIR" INDICATES FEW OR NO CLOUDS BELOW 12,000 FEET WITH NO  
SIGNIFICANT WEATHER AND/OR S TO VISIBILITY
.  
 
* THESE STATIONS ARE PART OF THE UNIVERSITY OF SOUTH ALABAMA  
MESONET AND ARE NOT UNDER NWS OR FAA QUALITY CONTROL.
 
 
ALZ061>064-250800-  
COASTAL ALABAMA  
 
CITY SKY/WX TMP DP RH WIND PRES REMARKS
 
MOBILE REG APT CLOUDY 70 69 97 E6 29.95S  
BROOKLEY FIELD CLOUDY 72 70 93 E12 29.96S  
USA CAMPUS* NOT AVBL  
DOG RIVER* NOT AVBL  
 
 
CITY SKY/WX TMP DP RH WIND PRES REMARKS
 
GULF SHORES CLOUDY 72 71 97 E8 29.94F  
 

 
 
ALZ051>060-250800-  
INTERIOR SOUTHWEST AND SOUTH CENTRAL ALABAMA  
 
CITY SKY/WX TMP DP RH WIND PRES REMARKS
 
GREENVILLE LGT RAIN 79 62 56 S3 29.97S  
EVERGREEN CLOUDY 70 65 84 CALM 29.97F  
ATMORE* N/A N/A N/A N/A CALM 29.97S  
ANDALUSIA/OPP CLOUDY 72 65 78 SE3 29.96F  
ANDALUSIA* N/A 68 66 94 S5 29.98S  
FLORALA APT CLOUDY 69 65 86 CALM 29.99F  
FLORALA* NOT AVBL  
 

 
 
FLZ001>006-250800-  
WESTERN FLORIDA PANHANDLE  
 
CITY SKY/WX TMP DP RH WIND PRES REMARKS
 
PENSACOLA CLOUDY 72 70 93 E8 29.94S  
NAS PENSACOLA CLOUDY 72 69 90 E3 29.93F  
MILTON NOT AVBL  
WHTNG S FIELD MOCLDY 70 67 90 E7 29.95F  
 
 
CITY SKY/WX TMP DP RH WIND PRES REMARKS
 
JAY* NOT AVBL  
DUKE FIELD CLOUDY 69 67 94 E6 29.95F  
CRESTVIEW NOT AVBL  
VALPARAISO CLOUDY 69 67 92 E7 29.94F  
DESTIN CLOUDY 71 69 93 E7 29.95F  
 

 
 
MSZ076-079-250800-  
INTERIOR SOUTHEAST MISSISSIPPI  
 
CITY SKY/WX TMP DP RH WIND PRES REMARKS
 
LEAKESVILLE* NOT AVBL  
AGRICOLA* N/A 68 66 94 CALM 29.93  
 

 
 
MARINE OBSERVATIONS  
 
STATION/POSITION TIME TEMP WIND PRES WAVE
 
AIR SEA DIR/SP/G HT/PER  
(UTC) (F) (DEG/KT/KT) (MB) (FT/S)  
PETIT BOIS ISLND 0630 75 110/ 5/ 6 1013.6F  
E DAUPHIN ISLAND 0600 76 130/ 8/ 9 1013.7F  
USCG MOBILE BAY 0630 71 75 120/ 10/ 12 1013.3F  
STATE DOCKS 0630 72 76 1014.3F  
WEEKS BAY 0545 71 1015.0S  
FORT MORGAN 0630 76 120/ 16/ 17 1013.5F  
12 S ORANGE BCH 0650 76 79 90/ 14/ 16 N/A  
PENSACOLA BAY 0630 71 74 130/ 2/ 6 1014.2R  
64 S DAUPHIN ISL 0650 79 80 190/ 10/ 12 1013.0F 3/ 6  
 

 
 
SELECTED LOCATIONS ACROSS THE REGION  
 
CITY SKY/WX TMP DP RH WIND PRES REMARKS
 
NEW ORLEANS PTCLDY 72 70 93 E5 29.90F  
GULFPORT CLOUDY 72 70 93 CALM 29.91F  
PASCAGOULA AP CLOUDY 73 72 96 E3 29.93S  
PASCAGOULA* NOT AVBL  
HATTIESBURG CLEAR 65 61 87 SE3 29.93F  
LAUREL CLEAR 65 64 97 SE8 29.93F  
MERIDIAN CLEAR 65 61 87 SW6 29.92F  
JACKSON PTCLDY 67 64 90 S7 29.91F  
MONTGOMERY MOCLDY 64 61 90 CALM 29.97F  
TROY CLOUDY 69 61 75 SE6 29.97F  
ASHFORD* N/A 68 66 94 S5 29.98S  
DOTHAN CLOUDY 68 65 90 E5 30.01F  
PANAMA CITY LGT RAIN 69 69 100 NE5 29.95F  
 

 
 
 
 
CLICK HERE TO GO TO PREVIOUS BULLETINS.

The Nexlab AL Page
The Nexlab FL Page
The Nexlab MS Page Main Text Page